Location: Bougoura
(13.1861°N, 5.0773°W)
Time: 10:51:26
(UTC+00:00)

Okean O Rocket - Pass Details

Date: 20 January 2021
Orbit: 622 x 645 km, 98.2° (Epoch: 25 February)

Event Time Altitude Azimuth Distance (km) Brightness Sun altitude
Rises 05:44:19 0° 37° (NE) 2,895 5.3 -15.3°
Reaches altitude 10° 05:47:06 10° 56° (NE) 1,986 4.7 -14.7°
Maximum altitude 05:50:03 18° 100° (E) 1,526 4.7 -14.0°
Drops below altitude 10° 05:52:59 10° 143° (SE) 1,983 5.0 -13.3°
Sets 05:55:46 0° 162° (SSE) 2,888 5.5 -12.7°
